Location: ???????????
(54.6970°N, 39.1477°E)
Time: 02:19:55
(UTC+00:00)

NOSS 3-1 (C) - Pass Details

Date: 19 May 2025
Orbit: 632 x 1571 km, 63.4° (Epoch: 12 June)

Event Time Altitude Azimuth Distance (km) Brightness Sun altitude
Rises 20:21:04 0° 243° (WSW) 3,083 6.0 -14.3°
Reaches altitude 10° 20:23:14 10° 246° (WSW) 2,245 5.3 -14.4°
Maximum altitude 20:28:19 64° 328° (NNW) 936 3.7 -14.5°
Drops below altitude 10° 20:34:42 10° 51° (NE) 2,800 6.3 -14.7°
Sets 20:37:40 0° 54° (NE) 3,912 7.0 -14.8°
